Погода в Вороновке

Россия / Томская область     56°49′36″N   83°27′46″E
темп.,
°C
ветер,
м/с
пор.,
м/с
влажн.,
%
обл.,
%
осадки,
мм/ч
давл.,
гПа
погр.,
м
7 мая, пт
пт701:00+14ю31071100 0.0 999169
04:00+12сз51384100 0.0 1002593
07:00+11сз51172100 0.0 1005718
10:00+13зсз57555 0.0 10071506
13:00+15зсз683896 0.0 10082510
16:00+16з6931100 0.0 10092842
19:00+15сз5114380 0.0 10112327
22:00+10зсз4105210 0.0 1014392
8 мая, сб
сб801:00+7зюз29655 0.0 1015216
04:00+6зюз412670 0.0 1016294
07:00+8юз4135995 0.0 1015433
10:00+13з6125089 0.0 10141218
13:00+15з71351100 0.0 10131921
16:00+16зсз7145512 0.6 10132051
19:00+16сз5104797 0.7 10132260
22:00+8ссв38655 0.0 1017277
9 мая, вс
вс901:00+5ссз39735 0.0 1018420
04:00+3ссз27780 0.0 1020276
07:00+3ссз25765 0.0 1022237
10:00+8с235311 0.0 1022927
13:00+12ссв23405 0.0 10221376
16:00+14св23366 0.0 10211626
19:00+14св3338100 0.0 10211582
22:00+9всв225697 0.0 102214
10 мая, пн
пн1001:00+7в396932 0.0 1022243
04:00+4в278117 0.0 1021166
07:00+5всв27756 0.0 1021211
10:00+10всв474981 0.0 1020900
13:00+13всв564177 0.0 10191989
16:00+13ссв564163 0.0 10181839
19:00+13ссв574399 0.0 10171935
22:00+8ссв410605 0.0 1018398
11 мая, вт
вт1101:00+5ссв39745 0.0 1018275
04:00+4с38819 0.0 1018194
07:00+5с397842 0.0 1019276
10:00+11с46565 0.0 10181023
13:00+15ссв464196 0.2 10182335
16:00+14ссв464479 0.1 10191775
19:00+15с454425 0.1 10191847
22:00+9с226443 0.0 102034